Home   Weather   Fort Worth   Past weeks
Flag for USA

Past Weather in Fort Worth, Texas, USA — November 2016

Now
39 °F

Sunny.


Feels Like: 28 °F
Forecast: 51 / 32 °F
Wind: 28 mph from Northwest

Location: Meacham International Airport

Current Time: Jan 19, 2019 at 1:34:29 pm

Latest Report: Jan 19, 2019 at 12:53 pm


Visibility: 10 mi

Pressure: 30.17 "Hg

Humidity: 53%

Dew Point: 23 °F

Location of Fort WorthLocation

November 2016 Weather in Fort Worth — Graph

°F

High & Low Weather Summary for November 2016

 TemperatureHumidityPressure
High87 °F (Nov 1, 2:53 pm)93% (Nov 7, 6:53 am)30.65 "Hg (Nov 7, 6:53 am)
Low37 °F (Nov 20, 4:53 am)19% (Nov 28, 12:53 pm)29.42 "Hg (Nov 28, 1:53 pm)
Average63 °F64%30.09 "Hg
* Reported Nov 1 12:53 am — Nov 30 11:53 pm, Fort Worth. Weather by CustomWeather, © 2019

Note: Actual official high and low records may vary slightly from our data, if they occured in-between our weather recording intervals... More about our weather records

Advertising

Fort Worth Weather History for November 1, 2016

Scroll right to see more
 ConditionsComfort  
Time TempWeatherWind HumidityBarometerVisibility
12:53 am
Tue, Nov 1
71 °FClear.9 mph78%29.92 "Hg10 mi
1:53 am72 °FClear.10 mph76%29.91 "Hg10 mi
2:53 am72 °FClear.14 mph78%29.91 "Hg10 mi
3:53 am71 °FClear.14 mph84%29.91 "Hg10 mi
4:53 am73 °FOvercast.18 mph79%29.90 "Hg10 mi
5:53 am72 °FClear.10 mph81%29.91 "Hg10 mi
7:01 am72 °FPassing clouds.12 mph81%29.95 "Hg10 mi
7:53 am71 °FPartly sunny.10 mph84%29.93 "Hg10 mi
8:53 am73 °FOvercast.14 mph81%29.95 "Hg10 mi
10:00 am76 °FPartly sunny.16 mph74%29.98 "Hg10 mi
10:53 am77 °FOvercast.17 mph69%29.96 "Hg10 mi
11:53 am79 °FMore clouds than sun.13 mph65%29.96 "Hg10 mi
12:53 pm81 °FMore clouds than sun.15 mph58%29.94 "Hg10 mi
1:53 pm84 °FPartly sunny.18 mph53%29.90 "Hg10 mi
2:53 pm87 °FScattered clouds.18 mph46%29.88 "Hg10 mi
3:53 pm87 °FSunny.18 mph45%29.86 "Hg10 mi
4:53 pm87 °FPassing clouds.20 mph42%29.86 "Hg10 mi
5:53 pm86 °FPartly sunny.20 mph45%29.87 "Hg10 mi
6:53 pm83 °FClear.13 mph51%29.88 "Hg10 mi
7:53 pm81 °FClear.12 mph56%29.91 "Hg10 mi
8:53 pm78 °FClear.18 mph69%29.93 "Hg10 mi
9:53 pm76 °FPassing clouds.18 mph77%29.94 "Hg10 mi
10:53 pm75 °FPassing clouds.16 mph79%29.96 "Hg10 mi
11:53 pm74 °FPassing clouds.16 mph82%29.96 "Hg10 mi
Weather by CustomWeather, © 2019

See weather overview